www.pogodaiklimat.ru

Погода и климат >> Архив погоды >> Россия >> Якутия >> Агаякан


ПОГОДА в Агаякане

  • Прогноз погоды в Агаякане
  • Монитор погоды в Агаякане

АРХИВ ПОГОДЫ в Агаякане

Время (UTC), дата Ветер
(напр.,м/с)
 
Видим.   Явления Облачность Т
(С)
Тd
(С)
f
(%)
Тe
(С)
Тes
(С)
Комфортность P
(гПа)
Po
(гПа)
Тmin
(С)
Tmax
(С)
R
(мм)
R24
(мм)
S
(см)
21 11.02 штиль 0 20 км ясно -52.7 -53.1 95 -53 -53 опасность
обморожения
1035.1 918.7 -52.8 40
00 12.02 штиль 0 50 км ясно -53.1 -55.0 80 -53 -53 опасность
обморожения
1034.7 918.2 -53.4
03 12.02 штиль 0 50 км ясно -42.2 -43.8 84 -42 -41 опасность
обморожения
1027.9 917.4
06 12.02 штиль 0 50 км ясно -39.2 -41.2 81 -39 -39 опасность
обморожения
1026.2 917.2
09 12.02 штиль 0 20 км ясно -45.4 -47.2 82 -45 -45 опасность
обморожения
1029.8 917.5 -39.2
12 12.02 штиль 0 20 км ясно -49.4 -50.7 86 -49 -49 опасность
обморожения
1032.8 918.4
15 12.02 штиль 0 20 км ясно -51.0 -51.5 94 -51 -51 опасность
обморожения
1034.6 919.2
18 12.02 штиль 0 20 км ясно -52.2 -53.1 90 -52 -52 опасность
обморожения
1035.0 919.0
21 12.02 штиль 0 20 км ясно -52.6 -53.1 94 -53 -53 опасность
обморожения
1036.5 920.1 -52.7 40
00 13.02 штиль 0 50 км 4/0
[Ci fib]
-52.6 -53.6 89 -53 -52 опасность
обморожения
1036.7 920.3
03 13.02 штиль 0 50 км 4/0
[Ci fib]
-42.4 -44.4 81 -42 -41 опасность
обморожения
1029.9 919.9
06 13.02 штиль 0 50 км ясно -40.0 -42.8 74 -40 -40 опасность
обморожения
1028.9 919.2
09 13.02 штиль 0 20 км ясно -46.9 -49.0 79 -47 -47 опасность
обморожения
1033.4 920.0 -40.0
12 13.02 штиль 0 20 км ясно -49.0 -50.7 82 -49 -49 опасность
обморожения
1035.5 921.0
15 13.02 штиль 0 20 км ясно -51.1 -52.0 90 -51 -51 опасность
обморожения
1036.7 920.6
18 13.02 штиль 0 20 км ясно -52.7 -53.6 90 -53 -53 опасность
обморожения
1037.1 920.5
21 13.02 штиль 0 20 км ясно -53.4 -55.0 82 -53 -53 опасность
обморожения
1037.8 920.9 -53.7 40
00 14.02 штиль 0 50 км ясно -52.8 -53.6 91 -53 -52 опасность
обморожения
1036.1 919.6
03 14.02 ЮВ 1 50 км ясно -42.6 -45.0 77 -48 -47 опасность
обморожения
1030.1 919.1
06 14.02 штиль 0 50 км ясно -41.0 -43.8 74 -41 -41 опасность
обморожения
1026.9 917.0
09 14.02 штиль 0 20 км ясно -47.4 -49.0 83 -47 -47 опасность
обморожения
1030.3 917.1 -41.0
12 14.02 штиль 0 20 км ясно -50.7 -52.5 81 -51 -51 опасность
обморожения
1031.1 916.2
15 14.02 штиль 0 20 км ясно -52.3 -53.1 91 -52 -52 опасность
обморожения
1032.1 916.3
18 14.02 штиль 0 20 км ясно -53.1 -55.0 80 -53 -53 опасность
обморожения
1032.8 916.5
21 14.02 штиль 0 20 км ясно -53.6 -55.0 84 -54 -54 опасность
обморожения
1030.5 914.3 -53.8 40
00 15.02 штиль 0 50 км ясно -53.3 -55.4 78 -53 -53 опасность
обморожения
1029.9 913.8
03 15.02 СВ 1 50 км ясно -43.0 -44.4 86 -49 -47 опасность
обморожения
1022.9 912.5
06 15.02 СВ 2 50 км ясно -41.1 -43.8 75 -50 -50 опасность
обморожения
1019.5 910.3
09 15.02 штиль 0 20 км ясно -46.8 -48.5 83 -47 -47 опасность
обморожения
1022.0 910.0 -41.1
12 15.02 штиль 0 20 км ясно -50.4 -52.0 83 -50 -50 опасность
обморожения
1023.0 909.2
15 15.02 штиль 0 20 км ясно -52.0 -53.1 88 -52 -52 опасность
обморожения
1023.9 909.2
18 15.02 штиль 0 20 км ясно -53.1 -55.0 80 -53 -53 опасность
обморожения
1023.9 908.6
21 15.02 штиль 0 20 км ясно -53.4 -55.0 82 -53 -53 опасность
обморожения
1023.4 908.1 -53.6 40
00 16.02 штиль 0 50 км 4/0
[Ci fib]
-52.3 -53.6 86 -52 -52 опасность
обморожения
1020.9 906.4
03 16.02 штиль 0 50 км ясно -42.4 -44.4 81 -42 -41 опасность
обморожения
1015.1 905.8
06 16.02 СВ 1 50 км ясно -41.4 -44.4 72 -47 -47 опасность
обморожения
1012.6 904.0
09 16.02 штиль 0 20 км ясно -47.3 -49.0 82 -47 -47 опасность
обморожения
1015.9 904.3 -41.4
12 16.02 штиль 0 20 км ясно -50.3 -52.0 82 -50 -50 опасность
обморожения
1017.8 904.5
15 16.02 штиль 0 20 км ясно -51.7 -53.1 85 -52 -52 опасность
обморожения
1018.7 904.7
18 16.02 штиль 0 20 км ясно -52.5 -53.1 93 -53 -53 опасность
обморожения
1018.2 903.8
21 16.02 штиль 0 20 км ясно -53.6 -55.0 84 -54 -54 опасность
обморожения
1020.8 905.6 -53.9 40
00 17.02 штиль 0 50 км ясно -53.5 -55.4 79 -54 -53 опасность
обморожения
1022.7 907.4
03 17.02 штиль 0 50 км ясно -42.7 -45.0 78 -43 -41 опасность
обморожения
1017.5 907.8
06 17.02 штиль 0 50 км ясно -40.4 -43.3 73 -40 -40 опасность
обморожения
1016.6 908.0
09 17.02 штиль 0 20 км ясно -47.2 -49.0 82 -47 -47 опасность
обморожения
1021.7 909.5 -40.4
12 17.02 штиль 0 20 км ясно -50.1 -52.0 80 -50 -50 опасность
обморожения
1024.8 910.5
15 17.02 штиль 0 20 км ясно -51.4 -53.1 82 -51 -51 опасность
обморожения
1025.3 910.7
18 17.02 штиль 0 20 км ясно -52.1 -53.1 89 -52 -52 опасность
обморожения
1025.5 910.5
21 17.02 штиль 0 20 км ясно -52.4 -53.1 92 -52 -52 опасность
обморожения
1026.8 911.5 -52.7 40
00 18.02 Ю 1 50 км 8/0
[Ac As]
-46.6 -48.5 81 -53 -52 опасность
обморожения
1025.1 912.8
03 18.02 СВ 1 50 км 6/0
[Ac trans]
-37.5 -40.5 73 -42 -41 опасность
обморожения
1021.4 913.5
06 18.02 штиль 0 50 км 8/0
[Ac trans]
-39.0 -41.8 75 -39 -39 опасность
обморожения
1022.1 913.5
09 18.02 штиль 0 20 км 4/0
[Ac trans]
-42.0 -44.4 77 -42 -42 опасность
обморожения
1024.7 914.5 -37.5
12 18.02 штиль 0 20 км 6/0
[Ac As]
-42.5 -43.8 87 -43 -43 опасность
обморожения
1026.6 916.0
15 18.02 штиль 0 20 км 8/0
[Ac As]
-42.7 -44.4 83 -43 -43 опасность
обморожения
1027.1 916.4
18 18.02 штиль 0 20 км 8/0
[Ac As]
-43.3 -44.6 87 -43 -43 опасность
обморожения
1026.5 915.5

 

Местоположение метеостанции Агаякан (Якутия, Россия): широта 63.33 долгота 141.70 высота над уровнем моря 777 м.

В архиве по умолчанию представлена погода в Агаякане за последнюю неделю. Архивные данные за месяц целиком и за предыдущие месяцы, начиная с января 2011 года, Вы можете получить, выбрав интересующий диапазон дат из раскрывающегося списка и нажав кнопку "Ввод!".


*Определитесь, кто Вы:
робот инопланетянин человек

Внимание! Время в таблицах - всемирное. Для получения местного времени необходимо прибавить поправку, которая равна 10 ч.

Смотрите также архив погоды в соседних городах и на ближайших метеорологических станциях:

Погода в Оймяконе (Якутия, Россия) (71 км)
Погода в Юртах (Якутия, Россия) (80 км)
Погода в Восточной (Якутия, Россия) (106 км)
Погода в Усть-Нере (Якутия, Россия) (150 км)
Погода в Делянкире (Якутия, Россия) (201 км)
Погода в Теплом Ключе (Якутия, Россия) (254 км)
Погода в Уеге (Хабаровский край, Россия) (295 км)
Погода в Томпо (Якутия, Россия) (299 км)
Погода в Сусумане (Магаданская область, Россия) (328 км)
Погода в Колымской (Магаданская область, Россия) (344 км)

Пояснения к столбцам:

Ветер - указаны скорость ветра в м/с - средняя за 10 мин, порывы в срок и между сроками (в фигурных скобках) и направление, откуда дует ветер: С - северный, СВ - северо-восточный, В - восточный, ЮВ - юго-восточный, Ю - южный, ЮЗ - юго-западный, З - западный, СЗ - северо-западный.
Видимость - горизонтальная дальность видимости в метрах или километрах. При видимости от 1 до 10 км при отсутствии осадков обычно наблюдается дымка, при ухудшении видимости до 1 км и менее - туман. В сухую погоду видимость может ухудшаться дымом, пылью или мглою.
Явления - указаны атмосферные явления, наблюдавшиеся в срок или в последний час перед сроком; фигурными скобками обозначены явления, наблюдавшиеся между сроками (за 1-3 часа до срока); квадратными скобками обозначены град или гололедные отложения с указанием их диаметра в мм.
Облачность - указаны через наклонную черту общая и нижняя облачность в баллах и высота нижней границы облаков в метрах; квадратными скобками обозначены формы облаков: Ci - перистые, Cs - перисто-слоистые, Cc - перисто-кучевые, Ac - высококучевые, As - высокослоистые, Sc - слоисто-кучевые, Ns - слоисто-дождевые, Cu - кучевые, Cb - кучево-дождевые. Подробнее классификацию облаков см. в Атласе облаков (PDF).
T - Температура воздуха - температура, измеренная на высоте 2 м над землей.
Td - Температура точки росы - температура, при понижении до которой содержащийся в воздухе водяной пар достигнет насыщения.
f - Относительная влажность воздуха - влажноcть воздуха, измеренная на высоте 2 м над землей.
Te - Эффективная температура - температура, которую ощущает одетый по сезону человек в тени. Характеристика душности погоды. При расчете учитывается влияние влажности воздуха и скорости ветра на теплоощущения человека.
Tes - Эффективная температура на солнце - температура, которую ощущает человек, с поправкой на солнечный нагрев. Характеристика знойности погоды. Зависит от высоты солнца над горизонтом, облачности и скорости ветра. Ночью, в пасмурную погоду, а также при ветре 12 м/с и более поправка равна нулю.
P - Атмосферное давление - приведенное к уровню моря атмосферное давление.
Po - Атмосферное давление - измеренное на уровне метеостанции атмосферное давление.
Tmin - Минимальная температура - минимум температуры воздуха на высоте 2 м над землей.
Tmax - Максимальная температура - максимум температуры воздуха на высоте 2 м над землей.
R - Количество осадков - Количество выпавших осадков за период времени, мм. При наведении курсора мыши на число - период времени, за который выпало указанное количество осадков.
R24 - Количество осадков - Количество выпавших осадков за 24 часа, мм.
S - Снежный покров - Высота снежного покрова, см. При наведении курсора мыши на число - состояние снежного покрова и степень покрытия местности в баллах.